Zurück zum Katalog

CZ-6A DEB

AktivSSO
NORAD 54951·DEBRIS·🇨🇳 China

Gestartet Nov 11, 2022 von Taiyuan Satellite Launch Center

Loading…

Nächste Überflüge (nächste 24 Stunden)

TLE

AktuellSource: Space-Track

Epoche: Sep 14, 2026, 00:59 UTC

1 54951U 22151SQ  26257.04103963  .00003647  00000-0  92982-3 0  9996
2 54951  98.5829 291.3317 0087180  95.2460 265.8688 14.48933006201423

Verfolge CZ-6A DEB in Echtzeit mit AllMySat

Download on the App Store